This is the latest recevied weather packets stored in our database for station/object KJ4AJP. If no packets are shown the sender has not sent any weather packets the latest 10 day(s).
| Time | Temp. | Humidity | Pressure | Rain* | Wind** | Luminosity | Snow |
|---|---|---|---|---|---|---|---|
| 1777822069 | 16.67° C | 44% | 1021.6 hPa | 0 mm | - | 609 W/m² | - |
| 1777821767 | 17.22° C | 43% | 1021.7 hPa | 0 mm | - | 598 W/m² | - |
| 1777821464 | 16.67° C | 49% | 1021.8 hPa | 0 mm | - | 585 W/m² | - |
| 1777821162 | 16.11° C | 46% | 1021.9 hPa | 0 mm | - | 574 W/m² | - |
| 1777820858 | 16.11° C | 47% | 1021.9 hPa | 0 mm | - | 560 W/m² | - |
| 1777820554 | 16.11° C | 49% | 1021.7 hPa | 0 mm | - | 546 W/m² | - |
| 1777820251 | 16.11° C | 49% | 1021.7 hPa | 0 mm | - | 535 W/m² | - |
| 1777819949 | 15.56° C | 50% | 1021.9 hPa | 0 mm | - | 520 W/m² | - |
| 1777819646 | 15.56° C | 52% | 1022 hPa | 0 mm | - | 509 W/m² | - |
| 1777819344 | 15.56° C | 53% | 1021.9 hPa | 0 mm | - | 493 W/m² | - |
| 1777819040 | 15.56° C | 55% | 1021.8 hPa | 0 mm | - | 477 W/m² | - |
| 1777818738 | 15° C | 56% | 1021.8 hPa | 0 mm | - | 463 W/m² | - |
| 1777818434 | 15° C | 57% | 1021.9 hPa | 0 mm | - | 448 W/m² | - |
| 1777818131 | 14.44° C | 60% | 1021.8 hPa | 0 mm | - | 433 W/m² | - |
| 1777817828 | 13.89° C | 61% | 1021.7 hPa | 0 mm | - | 416 W/m² | - |
| 1777817525 | 13.33° C | 61% | 1021.8 hPa | 0 mm | - | 185 W/m² | - |
| 1777817221 | 13.33° C | 63% | 1021.8 hPa | 0 mm | - | 100 W/m² | - |
| 1777816919 | 13.33° C | 64% | 1021.9 hPa | 0 mm | - | 63 W/m² | - |
| 1777816615 | 12.78° C | 67% | 1021.6 hPa | 0 mm | - | 163 W/m² | - |
| 1777816312 | 12.78° C | 67% | 1021.9 hPa | 0 mm | - | 124 W/m² | - |
| 1777816010 | 12.22° C | 69% | 1021.8 hPa | 0 mm | - | 117 W/m² | - |
| 1777815707 | 11.67° C | 70% | 1021.8 hPa | 0 mm | - | 162 W/m² | - |
| 1777815404 | 11.67° C | 71% | 1021.9 hPa | 0 mm | - | 56 W/m² | - |
| 1777815101 | 11.67° C | 74% | 1021.8 hPa | 0 mm | - | 52 W/m² | - |
| 1777814797 | 11.11° C | 76% | 1021.8 hPa | 0 mm | - | 49 W/m² | - |
* Rain latest hour (hover to see other rain measurements)
** Current wind speed in m/s (hover to see current wind gust speed)